Content
SEND FEEDBACK

Daily
Averages
Monthly
Summary
Brazil

TERESINA, PIAUI


Home > South America > Brazil > Piaui
Elevation: 328 feet     Latitude: 05 03S     Longitude: 042 48W

WEATHER
 
SELECT A DAY
Number of Records: 163,885;   Date Range: 6/30/96 - 8/10/14
 
SHARE

PRINT THIS DATA

[ ← Previous Day ]
WEATHER ALMANAC - MARCH 14, 2013
[ Next Day → ]
[ °C ]   °F
Weather ElementAverageHighLow
Temperature87.1 °F96 °F (3:00 pm)80.6 °F (5:00 am)
Dewpoint76.1 °F78.8 °F (3:00 am)69.8 °F (5:00 pm)
Humidity70.6 %94 % (5:00 am)40 % (3:00 pm)
Barometer29.78 in29.87 in (9:00 am)29.68 in (5:00 pm)
Wind Speed2.6 mph6.9 mph (1:00 pm)
Weather ElementAverage
Visibility7.3 mi
Wind DirectionSSE (170.4 °)

Weather ElementTotal
Precipitation---
Cooling Degree Days23.3 (Base 65)
Growing Degree Days38.3 (Base 50)
Averaged from 27 records on March 14, 2013
WEATHER CONDITIONS BREAKOUT
WIND DIRECTION BREAKOUT
WEATHER BY HOUR - MARCH 14, 2013
[ °C ]   °F
Local TimeTemperatureDewpointHumidityBarometerVisibilityWind DirectionWind SpeedGust SpeedPrecipitationEventsConditions
1:00 AM82.4 °F77.0 °F84 %29.80 in6.2 miNorth (360°)4.6 mphMostly Cloudy
2:00 AM82.4 °F77.0 °F84 %29.77 in6.2 miNNW (340°)4.6 mphMostly Cloudy
3:00 AM82.0 °F78.0 °F85 %29.78 in12.0 miNorth (350°)3.5 mphPartly Cloudy
3:00 AM82.4 °F78.8 °F89 %29.77 in6.2 miNorth (350°)3.5 mphMostly Cloudy
4:00 AM82.4 °F78.8 °F89 %29.77 in6.2 miNNW (340°)3.5 mphMostly Cloudy
5:00 AM80.6 °F78.8 °F94 %29.80 in6.2 miNorth (350°)3.5 mphMostly Cloudy
6:00 AM80.6 °F78.8 °F94 %29.80 in6.2 miCalmScattered Clouds
7:00 AM82.4 °F78.8 °F89 %29.83 in6.2 miCalmMostly Cloudy
8:00 AM82.4 °F78.8 °F89 %29.86 in6.2 miCalmMostly Cloudy
9:00 AM85.0 °F76.0 °F69 %29.87 in12.0 miEast (100°)2.3 mphMostly Cloudy
9:00 AM86.0 °F77.0 °F74 %29.86 in6.2 miEast (100°)2.3 mphMostly Cloudy
10:00 AM89.6 °F77.0 °F66 %29.86 in6.2 miENE (60°)2.3 mphMostly Cloudy
11:00 AM91.4 °F75.2 °F59 %29.83 in6.2 miEast (90°)3.5 mphMostly Cloudy
12:00 PM91.4 °F77.0 °F63 %29.83 in6.2 miESE (120°)4.6 mphMostly Cloudy
1:00 PM93.2 °F75.2 °F56 %29.80 in6.2 miSouth (190°)6.9 mphMostly Cloudy
2:00 PM95.0 °F75.2 °F53 %29.77 in6.2 miSE (130°)3.5 mphScattered Clouds
3:00 PM96.0 °F74.0 °F40 %29.73 in12.0 miSSE (150°)2.3 mphPartly Cloudy
3:00 PM95.0 °F75.2 °F53 %29.74 in6.2 miSSE (150°)2.3 mphScattered Clouds
4:00 PM93.2 °F75.2 °F56 %29.71 in6.2 miSouth (190°)4.6 mphScattered Clouds
5:00 PM95.0 °F69.8 °F44 %29.68 in6.2 miESE (120°)2.3 mphScattered Clouds
6:00 PM91.4 °F73.4 °F55 %29.68 in6.2 miSW (220°)2.3 mphScattered Clouds
7:00 PM89.6 °F73.4 °F59 %29.71 inCalmClear
8:00 PM86.0 °F75.2 °F70 %29.71 inCalmClear
9:00 PM85.0 °F75.0 °F66 %29.74 in12.0 miCalm
9:00 PM84.2 °F75.2 °F74 %29.74 inCalmClear
10:00 PM84.2 °F75.2 °F74 %29.80 inNorth (360°)4.6 mphClear
11:00 PM82.4 °F75.2 °F79 %29.80 inNorth (360°)3.5 mphClear
Hourly data recorded from SBTE, located miles away from Teresina, Piaui







STORIES FROM OUR PARTNERS